Regional Weather Roundup
Issued by NWS

Home | Current Version | Previous Version | Graphics & Text | Print | Product List | Glossary On
Versions: 1 2 3 4 5 6 7 8 9 10 11 12 13 14 15 16 17 18 19 20 21 22 23 24 25 26 27 28 29 30 31 32 33 34 35 36 37 38 39 40 41 42 43 44 45 46 47 48 49 50
386
ASUS43 KFSD 120710
RWRSD

WEATHER ROUNDUP FOR SOUTH DAKOTA
NATIONAL WEATHER SERVICE SIOUX FALLS SD
100 AM CST TUE DEC 12 2017

NOTE: "FAIR" INDICATES FEW OR NO CLOUDS BELOW 12,000 FEET WITH NO
SIGNIFICANT WEATHER AND/OR OBSTRUCTIONS TO VISIBILITY.


SDZ001>005-009-010-012>017-120800-
NORTHWEST AND NORTH CENTRAL SOUTH DAKOTA

CITY           SKY/WX    TMP DP  RH WIND       PRES   REMARKS
BUFFALO          N/A     22  19  89 W7        30.24F WCI  13
FAITH            N/A     26  23  88 W8        30.32  WCI  18
MOBRIDGE       CLOUDY    20  17  88 CALM      30.29F
$$

SDZ012>016-024>037-041>051-057-063-072>074-120800-
SOUTHWEST AND SOUTH CENTRAL SOUTH DAKOTA

CITY           SKY/WX    TMP DP  RH WIND       PRES   REMARKS
RAPID CTY ARPT CLOUDY    20  14  77 SW3       30.35F
PIERRE         CLOUDY    29  27  92 W6        30.33F WCI  23
CUSTER         CLOUDY    28  -1  28 W8        30.30F WCI  20
ELLSWORTH AFB  CLOUDY    25  19  77 SW3       30.33F
PHILIP         CLOUDY    24  21  88 W7        30.36F WCI  16
PINE RIDGE     CLOUDY    18  16  92 CALM      30.38F
SPEARFISH      FAIR      34   5  29 W10       30.32F WCI  26
WINNER         CLOUDY    34  30  85 W6        30.35F WCI  29
$$

SDZ004>011-016>023-039-040-120800-
NORTHEAST SOUTH DAKOTA

CITY           SKY/WX    TMP DP  RH WIND       PRES   REMARKS
ABERDEEN       CLEAR      6   5  95 SW6       30.34F WCI  -4
WATERTOWN      CLOUDY    11  10  96 W3        30.28F
BROOKINGS      CLOUDY    12   9  87 W6        30.31F WCI   3
SISSETON         N/A     11   7  84 W5        30.32S WCI   3
$$

SDZ017-020-022-023-036>040-048>070-120800-
SOUTHEAST SOUTH DAKOTA

CITY           SKY/WX    TMP DP  RH WIND       PRES   REMARKS
SIOUX FALLS    CLEAR     14  12  92 NW6       30.33F WCI   5
HURON          CLOUDY    16  14  92 W6        30.36F WCI   7
CHAMBERLAIN    MOCLDY    19  18  96 CALM      30.36F
MITCHELL       CLEAR     17  14  88 W5        30.38F WCI  10
YANKTON        CLEAR     18  14  84 W7        30.38S WCI   9
$$

ABBREVIATIONS USED IN REMARKS
   TC - TEMPERATURE IN CELSIUS
  WCI - WIND CHILL INDEX
   HX - HEAT INDEX
  VSB - VISIBILITY





USA.gov is the U.S. government's official web portal to all federal, state and local government web resources and services.